Flag for Tajikistan Weather past 2 weeks in Dushanbe, Tajikistan

Now
84 °F

Clear.


Feels Like: 82 °F
Forecast: 73 / 97 °F
Wind: 13 mph from Southeast

Location: Samarkand

Current Time: Jul 23, 2014 at 12:58:27 PM

Latest Report: Jul 23, 2014 at 10:30 AM


Visibility: N/A

Pressure: 29.71 "Hg

Humidity: 22%

Dew point: 41 °F

Location of DushanbeLocation

Historic Weather in Dushanbe — Graph

°F

Dushanbe temperature yesterday

Maximum temperature yesterday: 97 °F (at 3:00 PM)
Minimum temperature yesterday: 70 °F (at 6:00 AM)
Average temperature yesterday: 85 °F

Past Weeks' High & Low Weather Summary

 TemperatureHumidityPressure
High100 °F (Jul 11, 3:30 PM)77% (Jul 15, 5:30 AM)29.89 "Hg (Jul 15, 5:30 AM)
Low55 °F (Jul 17, 2:30 AM)10% (Jul 11, 1:00 PM)29.62 "Hg (Jul 9, 5:00 PM)
Average81 °F27%29.76 "Hg
* Reported Jul 8 10:00 AM — Jul 23 10:00 AM, Dushanbe, Weather by CustomWeather, © 2014

Note: Actual official high and low records may vary slightly from our data, if they occured in-between our weather recording intervals... More about our weather records

Advertising

Dushanbe weather history for July 8, 2014

 ConditionsComfort  
Time TempWeatherWind HumidityBarometerVisibility
10:00 AM
Jul 8
88 °FClear.6 mph19%29.74 "HgN/A
10:30 AM90 °FClear.6 mph20%29.74 "HgN/A
11:00 AM91 °FClear.6 mph16%29.74 "HgN/A
11:30 AM91 °FClear.3 mph17%29.74 "HgN/A
12:00 PM91 °FClear.8 mph15%29.71 "HgN/A
12:30 PM91 °FClear.8 mph13%29.71 "HgN/A
1:00 PM93 °FClear.6 mph15%29.71 "HgN/A
1:30 PM93 °FClear.8 mph14%29.71 "HgN/A
2:00 PM93 °FClear.8 mph16%29.68 "HgN/A
2:30 PM95 °FClear.10 mph13%29.68 "HgN/A
3:00 PM93 °FClear.13 mph16%29.68 "HgN/A
3:30 PM95 °FClear.13 mph14%29.68 "HgN/A
4:00 PM95 °FClear.15 mph13%29.68 "HgN/A
4:30 PM93 °FClear.17 mph15%29.68 "HgN/A
5:00 PM93 °FClear.17 mph14%29.68 "HgN/A
5:30 PM93 °FClear.20 mph15%29.68 "HgN/A
6:00 PM91 °FClear.17 mph16%29.68 "HgN/A
6:30 PM90 °FClear.15 mph17%29.68 "HgN/A
7:00 PM88 °FClear.13 mph18%29.68 "HgN/A
7:30 PM86 °FClear.13 mph19%29.68 "HgN/A
8:00 PM84 °FClear.10 mph22%29.68 "HgN/A
8:30 PM82 °FClear.8 mph23%29.68 "HgN/A
9:00 PM81 °FClear.10 mph24%29.68 "HgN/A
10:00 PM79 °FClear.8 mph26%29.68 "HgN/A
10:30 PM81 °FClear.6 mph24%29.68 "HgN/A
11:00 PM79 °FClear.3 mph26%29.68 "HgN/A
11:30 PM79 °FClear.6 mph28%29.68 "HgN/A
Weather by CustomWeather, © 2014

See weather overviewHow to use our weather pages